,,PA_Meas_PMT16A,,PR_Meas_QMR101_102,,RH_Meas_QMH101,,SR_Meas_QMS101,,TA_Meas_QMH101,,GenWind,,GenWind,
time,status,PA,status,PR,status,RH,status,SR,status,TA,status,DirAvg,status,SpdAvg,
2014-05-14, 07:46:04,VALID,918.504,VALID,0,VALID,94.2712,VALID,41.9021,VALID,20.7365,VALID,27,VALID,0.106641,
2014-05-14, 07:47:04,VALID,918.501,VALID,0,VALID,94.1339,VALID,43.5137,VALID,20.7365,VALID,27,VALID,0,
2014-05-14, 07:48:04,VALID,918.502,VALID,0,VALID,94.0577,VALID,44.6955,VALID,20.7365,VALID,27,VALID,0.0078125,
2014-05-14, 07:49:04,VALID,918.533,VALID,0,VALID,93.9205,VALID,45.3402,VALID,20.756,VALID,27,VALID,0,
2014-05-14, 07:50:04,VALID,918.539,VALID,0,VALID,93.8824,VALID,46.0923,VALID,20.795,VALID,27,VALID,0.382813,
2014-05-14, 07:51:04,VALID,918.602,VALID,0,VALID,93.9967,VALID,47.1667,VALID,20.8356,VALID,27,VALID,0.353125,
2014-05-14, 07:52:04,VALID,918.617,VALID,0,VALID,93.6918,VALID,48.6708,VALID,20.834,VALID,27,VALID,0.496875,
2014-05-14, 07:53:04,VALID,918.596,VALID,0,VALID,93.6232,VALID,50.4973,VALID,20.834,VALID,27,VALID,0.451172,
2014-05-14, 07:54:04,VALID,918.63,VALID,0,VALID,93.5927,VALID,52.6462,VALID,20.834,VALID,27,VALID,0.451562,
2014-05-14, 07:55:04,VALID,918.61,VALID,0,VALID,93.6918,VALID,54.5801,VALID,20.8324,VALID,27,VALID,0.403516,
2014-05-14, 07:56:04,VALID,918.635,VALID,0,VALID,93.9205,VALID,56.0843,VALID,20.873,VALID,27,VALID,0.431641,
2014-05-14, 07:57:04,VALID,918.647,VALID,0,VALID,93.9662,VALID,57.5885,VALID,20.912,VALID,27,VALID,0.427734,
2014-05-14, 07:58:04,VALID,918.623,VALID,0,VALID,94.1797,VALID,59.0926,VALID,20.9316,VALID,27,VALID,0.186328,
2014-05-14, 07:59:04,VALID,918.632,VALID,0,VALID,94.2864,VALID,60.5968,VALID,20.9901,VALID,27,VALID,0.00117188,
2014-05-14, 08:00:04,VALID,918.638,VALID,0,VALID,94.2559,VALID,62.101,VALID,20.9901,VALID,27,VALID,0.142578,
2014-05-14, 08:01:04,VALID,918.646,VALID,0,VALID,94.2483,VALID,63.6052,VALID,21.0486,VALID,27,VALID,0,
2014-05-14, 08:02:04,VALID,918.675,VALID,0,VALID,94.2102,VALID,65.0019,VALID,21.0681,VALID,27,VALID,0.0871094,
2014-05-14, 08:03:04,VALID,918.664,VALID,0,VALID,94.1492,VALID,66.2912,VALID,21.1266,VALID,27,VALID,0,
2014-05-14, 08:04:04,VALID,918.687,VALID,0,VALID,93.89,VALID,67.3656,VALID,21.1461,VALID,27,VALID,0,
2014-05-14, 08:05:04,VALID,918.712,VALID,0,VALID,93.6384,VALID,68.0102,VALID,21.1852,VALID,27,VALID,0,
2014-05-14, 08:06:04,VALID,918.714,VALID,0,VALID,93.4783,VALID,68.2251,VALID,21.2242,VALID,27,VALID,0.0648438,
2014-05-14, 08:07:04,VALID,918.724,VALID,0,VALID,93.1886,VALID,68.2251,VALID,21.2632,VALID,27,VALID,0.226563,
2014-05-14, 08:08:04,VALID,918.761,VALID,0,VALID,93.0667,VALID,68.2251,VALID,21.2827,VALID,27,VALID,0,
2014-05-14, 08:09:04,VALID,918.763,VALID,0,VALID,92.8075,VALID,68.2251,VALID,21.3022,VALID,27,VALID,0,
2014-05-14, 08:10:04,VALID,918.757,VALID,0,VALID,92.5254,VALID,68.3326,VALID,21.3022,VALID,27,VALID,0,
2014-05-14, 08:11:04,VALID,918.775,VALID,0,VALID,92.3196,VALID,68.6549,VALID,21.3412,VALID,27,VALID,0,
2014-05-14, 08:12:04,VALID,918.782,VALID,0,VALID,92.411,VALID,69.2995,VALID,21.3998,VALID,27,VALID,0,
2014-05-14, 08:13:04,VALID,918.776,VALID,0,VALID,91.9918,VALID,70.1591,VALID,21.3981,VALID,27,VALID,0.307031,
2014-05-14, 08:14:04,VALID,918.791,VALID,0,VALID,91.6335,VALID,71.3409,VALID,21.3591,VALID,27,VALID,0.378906,
2014-05-14, 08:15:04,VALID,918.805,VALID,0,VALID,91.5801,VALID,73.06,VALID,21.3803,VALID,27,VALID,0,
2014-05-14, 08:16:04,VALID,918.829,VALID,0,VALID,91.7173,VALID,75.2088,VALID,21.4209,VALID,27,VALID,0,
2014-05-14, 08:17:04,VALID,918.85,VALID,0,VALID,91.9536,VALID,78.1097,VALID,21.4404,VALID,27,VALID,0.437891,
2014-05-14, 08:18:04,VALID,918.861,VALID,0,VALID,91.7021,VALID,81.0106,VALID,21.4404,VALID,27,VALID,0.331641,
2014-05-14, 08:19:04,VALID,918.89,VALID,0,VALID,91.8469,VALID,83.9115,VALID,21.4599,VALID,27,VALID,0.383594,
2014-05-14, 08:20:04,VALID,918.89,VALID,0,VALID,91.7707,VALID,86.2752,VALID,21.4778,VALID,27,VALID,0.247656,
2014-05-14, 08:21:04,VALID,918.891,VALID,0,VALID,91.8012,VALID,88.1017,VALID,21.5185,VALID,27,VALID,0.0953125,
2014-05-14, 08:22:04,VALID,918.915,VALID,0,VALID,91.6716,VALID,89.7134,VALID,21.538,VALID,27,VALID,0.309766,
2014-05-14, 08:23:04,VALID,918.904,VALID,0,VALID,91.359,VALID,91.6473,VALID,21.5185,VALID,27,VALID,0.367969,
2014-05-14, 08:24:04,VALID,918.903,VALID,0,VALID,91.3514,VALID,93.7961,VALID,21.538,VALID,27,VALID,0.455859,
2014-05-14, 08:25:04,VALID,918.928,VALID,0,VALID,91.4734,VALID,96.3747,VALID,21.5363,VALID,27,VALID,0.665234,
2014-05-14, 08:26:04,VALID,918.931,VALID,0,VALID,90.9778,VALID,99.4905,VALID,21.4973,VALID,27,VALID,0.5125,
2014-05-14, 08:27:04,VALID,918.951,VALID,0,VALID,91.0998,VALID,103.036,VALID,21.5185,VALID,27,VALID,0.520703,
2014-05-14, 08:28:04,VALID,918.925,VALID,0,VALID,91.4581,VALID,106.367,VALID,21.5363,VALID,27,VALID,0.511328,
2014-05-14, 08:29:04,VALID,918.937,VALID,0,VALID,91.5877,VALID,109.053,VALID,21.5559,VALID,28,VALID,0.508203,
2014-05-14, 08:30:04,VALID,918.964,VALID,0,VALID,91.7021,VALID,110.557,VALID,21.5965,VALID,27,VALID,0.672656,
2014-05-14, 08:31:04,VALID,918.957,VALID,0,VALID,91.8927,VALID,110.235,VALID,21.5949,VALID,27,VALID,0.340625,
2014-05-14, 08:32:04,VALID,919.004,VALID,0,VALID,91.5115,VALID,108.516,VALID,21.616,VALID,27,VALID,0.674609,
2014-05-14, 08:33:04,VALID,918.998,VALID,0,VALID,91.4581,VALID,105.722,VALID,21.6144,VALID,27,VALID,0.336719,
2014-05-14, 08:34:04,VALID,919.03,VALID,0,VALID,91.4962,VALID,102.499,VALID,21.6551,VALID,27,VALID,0.351563,
2014-05-14, 08:35:04,VALID,919.036,VALID,0,VALID,91.298,VALID,99.2756,VALID,21.616,VALID,27,VALID,0.389062,
2014-05-14, 08:36:04,VALID,919.019,VALID,0,VALID,91.3971,VALID,96.5896,VALID,21.5965,VALID,27,VALID,0.328516,
2014-05-14, 08:37:04,VALID,919.033,VALID,0,VALID,91.2523,VALID,94.5482,VALID,21.5363,VALID,27,VALID,0.508594,
2014-05-14, 08:38:04,VALID,919.041,VALID,0,VALID,91.2066,VALID,93.4738,VALID,21.4973,VALID,27,VALID,0.391406,
2014-05-14, 08:39:04,VALID,919.069,VALID,0,VALID,90.9473,VALID,93.1515,VALID,21.4388,VALID,27,VALID,0.524219,
2014-05-14, 08:40:04,VALID,919.062,VALID,0,VALID,90.9321,VALID,93.7961,VALID,21.4209,VALID,27,VALID,0.380078,
2014-05-14, 08:41:04,VALID,919.072,VALID,0,VALID,91.2752,VALID,95.3003,VALID,21.4209,VALID,27,VALID,0.223828,
2014-05-14, 08:42:04,VALID,919.095,VALID,0,VALID,91.3057,VALID,97.2342,VALID,21.4209,VALID,26,VALID,0.246094,
2014-05-14, 08:43:04,VALID,919.116,VALID,0,VALID,91.6411,VALID,99.1682,VALID,21.4388,VALID,25,VALID,0.301953,
2014-05-14, 08:44:04,VALID,919.108,VALID,0,VALID,91.6563,VALID,100.565,VALID,21.4388,VALID,25,VALID,0.263672,
2014-05-14, 08:45:04,VALID,919.107,VALID,0,VALID,91.7021,VALID,101.21,VALID,21.4583,VALID,25,VALID,0.351172,
2014-05-14, 08:46:04,VALID,919.11,VALID,0,VALID,91.7097,VALID,100.995,VALID,21.4388,VALID,25,VALID,0.313672,
2014-05-14, 08:47:04,VALID,919.147,VALID,0,VALID,91.885,VALID,99.8128,VALID,21.4583,VALID,25,VALID,0.0265625,
2014-05-14, 08:48:04,VALID,919.165,VALID,0,VALID,91.8393,VALID,97.9863,VALID,21.4599,VALID,25,VALID,0.597266,
2014-05-14, 08:49:04,VALID,919.197,VALID,0,VALID,91.6792,VALID,96.1598,VALID,21.4193,VALID,25,VALID,0.555859,
2014-05-14, 08:50:04,VALID,919.191,VALID,0,VALID,91.7935,VALID,95.1929,VALID,21.3998,VALID,25,VALID,0.300781,
2014-05-14, 08:51:04,VALID,919.22,VALID,0,VALID,91.9536,VALID,95.5152,VALID,21.4193,VALID,25,VALID,0.269922,
2014-05-14, 08:52:04,VALID,919.245,VALID,0,VALID,91.8774,VALID,97.9863,VALID,21.4193,VALID,25,VALID,0.241797,
2014-05-14, 08:53:04,VALID,919.258,VALID,0,VALID,91.9613,VALID,102.821,VALID,21.4388,VALID,25,VALID,0.333203,
2014-05-14, 08:54:04,VALID,919.242,VALID,0,VALID,92.1671,VALID,110.02,VALID,21.4778,VALID,25,VALID,0,
2014-05-14, 08:55:04,VALID,919.222,VALID,0,VALID,92.1519,VALID,119.152,VALID,21.5363,VALID,25,VALID,0.957031,
2014-05-14, 08:56:04,VALID,919.187,VALID,0,VALID,92.2433,VALID,129.359,VALID,21.5754,VALID,25,VALID,0.814062,
2014-05-14, 08:57:04,VALID,919.194,VALID,0,VALID,92.2967,VALID,139.673,VALID,21.5754,VALID,25,VALID,0.606641,
2014-05-14, 08:58:04,VALID,919.161,VALID,0,VALID,92.4797,VALID,149.128,VALID,21.6729,VALID,25,VALID,0.157813,
2014-05-14, 08:59:04,VALID,919.134,VALID,0,VALID,92.0832,VALID,156.972,VALID,21.712,VALID,25,VALID,0.634766,
2014-05-14, 09:00:04,VALID,919.121,VALID,0,VALID,91.9384,VALID,162.988,VALID,21.7315,VALID,25,VALID,0.337891,
2014-05-14, 09:01:04,VALID,919.131,VALID,0,VALID,91.6563,VALID,169.757,VALID,21.7315,VALID,25,VALID,0.549219,
2014-05-14, 09:02:04,VALID,919.144,VALID,0,VALID,91.7326,VALID,175.774,VALID,21.79,VALID,25,VALID,0.458203,
2014-05-14, 09:03:04,VALID,919.101,VALID,0,VALID,91.5953,VALID,183.617,VALID,21.829,VALID,26,VALID,0.781641,
2014-05-14, 09:04:04,VALID,919.147,VALID,0,VALID,91.8774,VALID,189.956,VALID,21.9071,VALID,25,VALID,0.292578,
2014-05-14, 09:05:04,VALID,919.151,VALID,0,VALID,91.6258,VALID,199.518,VALID,21.9656,VALID,25,VALID,0.462109,
2014-05-14, 09:06:04,VALID,919.149,VALID,0,VALID,91.3895,VALID,211.981,VALID,22.0242,VALID,25,VALID,0.592578,
2014-05-14, 09:07:04,VALID,919.2,VALID,0,VALID,91.016,VALID,221.866,VALID,22.1022,VALID,25,VALID,0.245703,
2014-05-14, 09:08:04,VALID,919.185,VALID,0,VALID,90.3375,VALID,230.676,VALID,22.1803,VALID,25,VALID,0.411328,
2014-05-14, 09:09:04,VALID,919.199,VALID,0,VALID,89.1482,VALID,236.693,VALID,22.1998,VALID,26,VALID,1.18672,
2014-05-14, 09:10:04,VALID,919.175,VALID,0,VALID,88.3783,VALID,240.668,VALID,22.2193,VALID,42,VALID,0.723828,
2014-05-14, 09:11:04,VALID,919.192,VALID,0,VALID,88.7061,VALID,243.247,VALID,22.2193,VALID,47,VALID,1.28008,
2014-05-14, 09:12:04,VALID,919.163,VALID,0,VALID,88.5079,VALID,244.751,VALID,22.1998,VALID,46,VALID,1.52695,
2014-05-14, 09:13:04,VALID,919.179,VALID,0,VALID,88.1191,VALID,245.61,VALID,22.1998,VALID,41,VALID,1.48516,
2014-05-14, 09:14:04,VALID,919.196,VALID,0,VALID,87.4406,VALID,246.685,VALID,22.1396,VALID,20,VALID,1.36953,
2014-05-14, 09:15:04,VALID,919.228,VALID,0,VALID,87.6922,VALID,247.867,VALID,22.1396,VALID,24,VALID,0.998828,
2014-05-14, 09:16:04,VALID,919.196,VALID,0,VALID,87.715,VALID,248.726,VALID,22.1803,VALID,12,VALID,1.30664,
2014-05-14, 09:17:04,VALID,919.237,VALID,0,VALID,87.8827,VALID,249.156,VALID,22.1803,VALID,34,VALID,1.02813,
2014-05-14, 09:18:04,VALID,919.264,VALID,0,VALID,88.6375,VALID,249.478,VALID,22.2193,VALID,27,VALID,1.29062,
2014-05-14, 09:19:04,VALID,919.254,VALID,0,VALID,88.9348,VALID,249.801,VALID,22.2974,VALID,32,VALID,1.25117,
2014-05-14, 09:20:04,VALID,919.221,VALID,0,VALID,87.4711,VALID,250.445,VALID,22.2762,VALID,43,VALID,1.00937,
2014-05-14, 09:21:04,VALID,919.226,VALID,0,VALID,87.2347,VALID,251.305,VALID,22.3169,VALID,17,VALID,1.24141,
2014-05-14, 09:22:04,VALID,919.281,VALID,0,VALID,85.8778,VALID,251.842,VALID,22.2957,VALID,360,VALID,0.723047,
2014-05-14, 09:23:04,VALID,919.285,VALID,0,VALID,85.7863,VALID,252.272,VALID,22.395,VALID,360,VALID,0.507422,
2014-05-14, 09:24:04,VALID,919.288,VALID,0,VALID,85.2832,VALID,251.412,VALID,22.4535,VALID,21,VALID,1.33984,
2014-05-14, 09:25:04,VALID,919.31,VALID,0,VALID,83.2934,VALID,249.156,VALID,22.4145,VALID,16,VALID,0.697266,
2014-05-14, 09:26:04,VALID,919.324,VALID,0,VALID,84.2769,VALID,245.503,VALID,22.4518,VALID,16,VALID,0.222656,
2014-05-14, 09:27:04,VALID,919.302,VALID,0,VALID,84.2921,VALID,240.776,VALID,22.5494,VALID,17,VALID,0,
2014-05-14, 09:28:04,VALID,919.31,VALID,0,VALID,84.5361,VALID,235.081,VALID,22.6682,VALID,17,VALID,0.692578,
2014-05-14, 09:29:04,VALID,919.305,VALID,0,VALID,84.9096,VALID,229.279,VALID,22.725,VALID,16,VALID,1.27031,
2014-05-14, 09:30:04,VALID,919.306,VALID,0,VALID,83.9491,VALID,223.692,VALID,22.7055,VALID,11,VALID,0.896484,
2014-05-14, 09:31:04,VALID,919.322,VALID,0,VALID,85.9159,VALID,219.395,VALID,22.7055,VALID,11,VALID,0.806641,
2014-05-14, 09:32:04,VALID,919.345,VALID,0,VALID,86.9603,VALID,216.494,VALID,22.725,VALID,10,VALID,0.362109,
2014-05-14, 09:33:04,VALID,919.358,VALID,0,VALID,85.1459,VALID,214.453,VALID,22.7267,VALID,1,VALID,0.823438,
2014-05-14, 09:34:04,VALID,919.349,VALID,0,VALID,84.6428,VALID,213.271,VALID,22.6665,VALID,1,VALID,0.690234,
2014-05-14, 09:35:04,VALID,919.358,VALID,0,VALID,85.4814,VALID,213.271,VALID,22.6274,VALID,1,VALID,0.767969,
2014-05-14, 09:36:04,VALID,919.346,VALID,0,VALID,85.8015,VALID,214.99,VALID,22.6274,VALID,1,VALID,0.385938,
2014-05-14, 09:37:04,VALID,919.336,VALID,0,VALID,86.2056,VALID,218.106,VALID,22.6665,VALID,1,VALID,0.292969,
2014-05-14, 09:38:04,VALID,919.306,VALID,0,VALID,85.5042,VALID,222.403,VALID,22.7658,VALID,360,VALID,0.00585938,
2014-05-14, 09:39:04,VALID,919.312,VALID,0,VALID,85.0773,VALID,227.56,VALID,22.8421,VALID,1,VALID,0.397266,
2014-05-14, 09:40:04,VALID,919.289,VALID,0,VALID,82.9733,VALID,232.288,VALID,22.8616,VALID,1,VALID,0.682422,
2014-05-14, 09:41:04,VALID,919.294,VALID,0,VALID,81.9975,VALID,236.156,VALID,22.8616,VALID,1,VALID,0.819531,
2014-05-14, 09:42:04,VALID,919.263,VALID,0,VALID,81.2885,VALID,239.379,VALID,22.9202,VALID,1,VALID,0.341797,
2014-05-14, 09:43:04,VALID,919.256,VALID,0,VALID,82.9733,VALID,241.098,VALID,22.9983,VALID,1,VALID,0.174609,
2014-05-14, 09:44:04,VALID,919.255,VALID,0,VALID,81.7001,VALID,240.991,VALID,23.0763,VALID,1,VALID,0.442578,
2014-05-14, 09:45:04,VALID,919.267,VALID,0,VALID,82.0203,VALID,239.486,VALID,23.0959,VALID,283,VALID,0.715625,
2014-05-14, 09:46:04,VALID,919.243,VALID,0,VALID,83.019,VALID,236.693,VALID,23.016,VALID,283,VALID,0.208203,
2014-05-14, 09:47:04,VALID,919.249,VALID,0,VALID,83.5069,VALID,233.04,VALID,23.0746,VALID,283,VALID,0.0765625,
2014-05-14, 09:48:04,VALID,919.268,VALID,0,VALID,82.836,VALID,228.742,VALID,23.2112,VALID,283,VALID,0.216016,
2014-05-14, 09:49:04,VALID,919.267,VALID,0,VALID,81.319,VALID,225.734,VALID,23.1722,VALID,283,VALID,0.246875,
2014-05-14, 09:50:04,VALID,919.22,VALID,0,VALID,83.1029,VALID,225.841,VALID,23.2502,VALID,285,VALID,0.300781,
2014-05-14, 09:51:04,VALID,919.246,VALID,0,VALID,81.0598,VALID,230.461,VALID,23.3478,VALID,323,VALID,0.614062,
2014-05-14, 09:52:04,VALID,919.237,VALID,0,VALID,80.1755,VALID,235.941,VALID,23.2893,VALID,318,VALID,0.646875,
2014-05-14, 09:53:04,VALID,919.235,VALID,0,VALID,79.4436,VALID,237.66,VALID,23.2325,VALID,318,VALID,0.383594,
2014-05-14, 09:54:04,VALID,919.24,VALID,0,VALID,80.2365,VALID,239.379,VALID,23.2307,VALID,319,VALID,0,
2014-05-14, 09:55:04,VALID,919.236,VALID,0,VALID,78.9252,VALID,241.313,VALID,23.2911,VALID,318,VALID,0.604297,
2014-05-14, 09:56:04,VALID,919.228,VALID,0,VALID,79.9544,VALID,245.073,VALID,23.2112,VALID,308,VALID,1.09258,
2014-05-14, 09:57:04,VALID,919.218,VALID,0,VALID,80.793,VALID,250.768,VALID,23.1136,VALID,305,VALID,0.532422,
2014-05-14, 09:58:04,VALID,919.23,VALID,0,VALID,81.6239,VALID,259.148,VALID,23.0941,VALID,305,VALID,0.878906,
2014-05-14, 09:59:04,VALID,919.227,VALID,0,VALID,81.2732,VALID,265.057,VALID,22.9575,VALID,302,VALID,1.03125,
2014-05-14, 10:00:04,VALID,919.211,VALID,0,VALID,82.1118,VALID,269.355,VALID,22.9185,VALID,293,VALID,0.223828,
2014-05-14, 10:01:04,VALID,919.233,VALID,0,VALID,82.7141,VALID,274.512,VALID,22.9787,VALID,292,VALID,0.257031,
2014-05-14, 10:02:04,VALID,919.249,VALID,0,VALID,82.2872,VALID,277.091,VALID,23.1154,VALID,354,VALID,0.980469,
2014-05-14, 10:03:04,VALID,919.237,VALID,0,VALID,83.1181,VALID,274.082,VALID,23.1154,VALID,51,VALID,0.704297,
2014-05-14, 10:04:04,VALID,919.275,VALID,0,VALID,83.5526,VALID,269.57,VALID,23.1544,VALID,51,VALID,0.315625,
2014-05-14, 10:05:04,VALID,919.272,VALID,0,VALID,83.5679,VALID,269.033,VALID,23.252,VALID,47,VALID,0.0730469,
2014-05-14, 10:06:04,VALID,919.268,VALID,0,VALID,82.7979,VALID,268.388,VALID,23.3283,VALID,46,VALID,0.6,
2014-05-14, 10:07:04,VALID,919.285,VALID,0,VALID,82.188,VALID,264.52,VALID,23.4082,VALID,35,VALID,1.11953,
2014-05-14, 10:08:04,VALID,919.29,VALID,0,VALID,81.3342,VALID,260.545,VALID,23.488,VALID,6,VALID,0.503125,
2014-05-14, 10:09:04,VALID,919.297,VALID,0,VALID,80.3432,VALID,256.784,VALID,23.5058,VALID,6,VALID,0,
2014-05-14, 10:10:04,VALID,919.284,VALID,0,VALID,80.0154,VALID,251.627,VALID,23.5448,VALID,6,VALID,0.30625,
2014-05-14, 10:11:04,VALID,919.294,VALID,0,VALID,79.7333,VALID,247.222,VALID,23.5661,VALID,6,VALID,0.707812,
2014-05-14, 10:12:04,VALID,919.328,VALID,0,VALID,81.7154,VALID,243.999,VALID,23.5448,VALID,6,VALID,0.653125,
2014-05-14, 10:13:04,VALID,919.326,VALID,0,VALID,81.5172,VALID,244.429,VALID,23.6229,VALID,6,VALID,0.459766,
2014-05-14, 10:14:04,VALID,919.32,VALID,0,VALID,80.549,VALID,245.718,VALID,23.6424,VALID,7,VALID,0.608594,
2014-05-14, 10:15:04,VALID,919.295,VALID,0,VALID,80.6557,VALID,243.032,VALID,23.6229,VALID,7,VALID,0.622266,
2014-05-14, 10:16:04,VALID,919.321,VALID,0,VALID,80.3813,VALID,237.875,VALID,23.5235,VALID,7,VALID,0.495703,
2014-05-14, 10:17:04,VALID,919.315,VALID,0,VALID,81.7154,VALID,234.222,VALID,23.543,VALID,6,VALID,0.117969,
2014-05-14, 10:18:04,VALID,919.326,VALID,0,VALID,82.1957,VALID,229.494,VALID,23.5821,VALID,9,VALID,0.546875,
2014-05-14, 10:19:04,VALID,919.296,VALID,0,VALID,81.3952,VALID,222.618,VALID,23.5821,VALID,38,VALID,0.533203,
2014-05-14, 10:20:04,VALID,919.325,VALID,0,VALID,82.0127,VALID,216.816,VALID,23.6016,VALID,33,VALID,0.517187,
2014-05-14, 10:21:04,VALID,919.332,VALID,0,VALID,81.5934,VALID,211.014,VALID,23.6406,VALID,33,VALID,0.0191406,
2014-05-14, 10:22:04,VALID,919.314,VALID,0,VALID,79.8172,VALID,209.94,VALID,23.6211,VALID,6,VALID,0.666406,
2014-05-14, 10:23:04,VALID,919.296,VALID,0,VALID,80.9607,VALID,205.213,VALID,23.5821,VALID,6,VALID,0.207422,
2014-05-14, 10:24:04,VALID,919.331,VALID,0,VALID,81.5324,VALID,196.402,VALID,23.6016,VALID,6,VALID,0.0710938,
2014-05-14, 10:25:04,VALID,919.331,VALID,0,VALID,82.2109,VALID,188.774,VALID,23.6388,VALID,6,VALID,0.513281,
2014-05-14, 10:26:04,VALID,919.336,VALID,0,VALID,82.3024,VALID,181.146,VALID,23.6992,VALID,6,VALID,0.467969,
2014-05-14, 10:27:04,VALID,919.353,VALID,0,VALID,81.5096,VALID,174.162,VALID,23.7578,VALID,8,VALID,0.216797,
2014-05-14, 10:28:04,VALID,919.36,VALID,0,VALID,80.0916,VALID,169.22,VALID,23.6602,VALID,279,VALID,0.521094,
2014-05-14, 10:29:04,VALID,919.355,VALID,0,VALID,80.9531,VALID,165.03,VALID,23.6406,VALID,279,VALID,0.349609,
2014-05-14, 10:30:04,VALID,919.372,VALID,0,VALID,81.7383,VALID,160.625,VALID,23.6602,VALID,279,VALID,0.155859,
2014-05-14, 10:31:04,VALID,919.332,VALID,0,VALID,82.2872,VALID,158.368,VALID,23.7205,VALID,279,VALID,0.158203,
2014-05-14, 10:32:04,VALID,919.358,VALID,0,VALID,80.9836,VALID,162.021,VALID,23.7382,VALID,325,VALID,0.3375,
2014-05-14, 10:33:04,VALID,919.349,VALID,0,VALID,81.0903,VALID,172.98,VALID,23.74,VALID,325,VALID,0.604297,
2014-05-14, 10:34:04,VALID,919.347,VALID,0,VALID,81.8602,VALID,188.344,VALID,23.6992,VALID,325,VALID,0.586328,
2014-05-14, 10:35:04,VALID,919.298,VALID,0,VALID,82.31,VALID,201.667,VALID,23.701,VALID,325,VALID,0.990234,
2014-05-14, 10:36:04,VALID,919.318,VALID,0,VALID,82.6531,VALID,210.8,VALID,23.7596,VALID,325,VALID,1.07852,
2014-05-14, 10:37:04,VALID,919.3,VALID,0,VALID,82.0889,VALID,215.42,VALID,23.7596,VALID,325,VALID,1.02031,
2014-05-14, 10:38:04,VALID,919.299,VALID,0,VALID,83.141,VALID,214.345,VALID,23.7205,VALID,325,VALID,0.805078,
2014-05-14, 10:39:04,VALID,919.274,VALID,0,VALID,83.2401,VALID,207.684,VALID,23.7596,VALID,325,VALID,0.472656,
2014-05-14, 10:40:04,VALID,919.28,VALID,0,VALID,83.3773,VALID,197.155,VALID,23.7986,VALID,325,VALID,0.471484,
2014-05-14, 10:41:04,VALID,919.262,VALID,0,VALID,82.6912,VALID,185.014,VALID,23.8554,VALID,325,VALID,0.345313,
2014-05-14, 10:42:04,VALID,919.257,VALID,0,VALID,81.906,VALID,172.121,VALID,23.9743,VALID,325,VALID,0.816016,
2014-05-14, 10:43:04,VALID,919.234,VALID,0,VALID,80.1374,VALID,160.41,VALID,23.9939,VALID,325,VALID,0.882031,
2014-05-14, 10:44:04,VALID,919.277,VALID,0,VALID,80.7091,VALID,151.492,VALID,23.9158,VALID,325,VALID,0.691797,
2014-05-14, 10:45:04,VALID,919.263,VALID,0,VALID,81.6544,VALID,144.723,VALID,23.8749,VALID,325,VALID,0.528125,
2014-05-14, 10:46:04,VALID,919.235,VALID,0,VALID,81.7764,VALID,139.136,VALID,23.8962,VALID,325,VALID,0,
2014-05-14, 10:47:04,VALID,919.243,VALID,0,VALID,81.5934,VALID,134.409,VALID,23.9335,VALID,325,VALID,0.0425781,
2014-05-14, 10:48:04,VALID,919.219,VALID,0,VALID,81.258,VALID,130.004,VALID,23.953,VALID,325,VALID,0.682813,
2014-05-14, 10:49:04,VALID,919.195,VALID,0,VALID,81.2885,VALID,128.929,VALID,23.9743,VALID,325,VALID,0.266016,
2014-05-14, 10:50:04,VALID,919.196,VALID,0,VALID,81.6773,VALID,134.731,VALID,23.9353,VALID,325,VALID,0.633984,
2014-05-14, 10:51:04,VALID,919.164,VALID,0,VALID,82.5235,VALID,149.021,VALID,23.8944,VALID,325,VALID,0.701172,
2014-05-14, 10:52:04,VALID,919.169,VALID,0,VALID,83.3392,VALID,164.707,VALID,23.7968,VALID,325,VALID,0.524609,
2014-05-14, 10:53:04,VALID,919.163,VALID,0,VALID,81.906,VALID,169.435,VALID,23.701,VALID,270,VALID,0.764063,
2014-05-14, 10:54:04,VALID,919.148,VALID,0,VALID,83.3621,VALID,167.071,VALID,23.6016,VALID,279,VALID,0.66875,
2014-05-14, 10:55:04,VALID,919.123,VALID,0,VALID,84.1549,VALID,167.178,VALID,23.5821,VALID,324,VALID,0.861328,
2014-05-14, 10:56:04,VALID,919.156,VALID,0,VALID,84.2921,VALID,170.509,VALID,23.504,VALID,360,VALID,0.311328,
2014-05-14, 10:57:04,VALID,919.155,VALID,0,VALID,85.2908,VALID,174.807,VALID,23.5235,VALID,16,VALID,0.48125,
2014-05-14, 10:58:04,VALID,919.124,VALID,0,VALID,85.1612,VALID,170.402,VALID,23.5235,VALID,38,VALID,0.553906,
2014-05-14, 10:59:04,VALID,919.124,VALID,0,VALID,85.6338,VALID,162.558,VALID,23.5235,VALID,38,VALID,0.387109,
2014-05-14, 11:00:04,VALID,919.128,VALID,0,VALID,84.841,VALID,154.93,VALID,23.5253,VALID,38,VALID,0.183594,
2014-05-14, 11:01:04,VALID,919.117,VALID,0,VALID,84.7724,VALID,144.938,VALID,23.5235,VALID,38,VALID,0.393359,
2014-05-14, 11:02:04,VALID,919.071,VALID,0,VALID,84.8181,VALID,137.417,VALID,23.5839,VALID,38,VALID,0.276172,
2014-05-14, 11:03:04,VALID,919.08,VALID,0,VALID,84.1778,VALID,140.318,VALID,23.504,VALID,81,VALID,0.747266,
2014-05-14, 11:04:04,VALID,919.086,VALID,0,VALID,84.0863,VALID,155.36,VALID,23.4082,VALID,77,VALID,0.625,
2014-05-14, 11:05:04,VALID,919.074,VALID,0,VALID,86.0455,VALID,176.848,VALID,23.3674,VALID,10,VALID,0.845703,
2014-05-14, 11:06:04,VALID,919.037,VALID,0,VALID,85.1383,VALID,193.179,VALID,23.3088,VALID,287,VALID,0.541406,
2014-05-14, 11:07:04,VALID,919.034,VALID,0,VALID,85.3136,VALID,202.634,VALID,23.2325,VALID,140,VALID,0.923437,
2014-05-14, 11:08:04,VALID,919.011,VALID,0,VALID,85.3213,VALID,218.75,VALID,23.1722,VALID,105,VALID,1.48945,
2014-05-14, 11:09:04,VALID,919.009,VALID,0,VALID,86.2437,VALID,245.181,VALID,23.0941,VALID,8,VALID,0.864062,
2014-05-14, 11:10:04,VALID,919.005,VALID,0,VALID,87.1128,VALID,260.652,VALID,23.1349,VALID,7,VALID,0.896484,
2014-05-14, 11:11:04,VALID,918.971,VALID,0,VALID,87.8599,VALID,261.512,VALID,23.1917,VALID,13,VALID,0.429297,
2014-05-14, 11:12:04,VALID,918.982,VALID,0,VALID,86.7773,VALID,248.941,VALID,23.2112,VALID,35,VALID,1.09609,
2014-05-14, 11:13:04,VALID,918.973,VALID,0,VALID,86.0912,VALID,245.181,VALID,23.2698,VALID,35,VALID,0.867969,
2014-05-14, 11:14:04,VALID,918.911,VALID,0,VALID,85.3441,VALID,259.685,VALID,23.3088,VALID,29,VALID,0.569922,
2014-05-14, 11:15:04,VALID,918.92,VALID,0,VALID,86.198,VALID,276.876,VALID,23.3478,VALID,29,VALID,1.51914,
2014-05-14, 11:16:04,VALID,918.903,VALID,0,VALID,86.7697,VALID,265.38,VALID,23.4082,VALID,28,VALID,1.28828,
2014-05-14, 11:17:04,VALID,918.878,VALID,0,VALID,86.4343,VALID,248.082,VALID,23.4259,VALID,33,VALID,0.283203,
2014-05-14, 11:18:04,VALID,918.847,VALID,0,VALID,86.4953,VALID,228.742,VALID,23.5058,VALID,25,VALID,0.766016,
2014-05-14, 11:19:04,VALID,918.84,VALID,0,VALID,86.5258,VALID,211.229,VALID,23.5448,VALID,37,VALID,0.945313,
2014-05-14, 11:20:04,VALID,918.852,VALID,0,VALID,85.1459,VALID,194.254,VALID,23.5448,VALID,33,VALID,0.901953,
2014-05-14, 11:21:04,VALID,918.826,VALID,0,VALID,85.6491,VALID,190.386,VALID,23.5643,VALID,16,VALID,0.678906,